Location: Huesca
(42.1318°N, 0.4078°W)
Time: 12:24:35
(UTC+02:00)

YUBILEINY - Visible Passes

Search period start: 16 June 2025 00:00
Search period end: 26 June 2025 00:00
Orbit: 1477 x 1509 km, 82.5° (Epoch: 16 June)

Date Brightness Start Highest point End Pass type
(mag) Time Alt. Az. Time Alt. Az. Time Alt. Az.
16 Jun ? 00:11:24 10° SSW 00:19:55 58° WNW 00:28:31 10° N visible
16 Jun ? 02:16:33 10° WNW 02:18:57 11° NW 02:21:22 10° NW visible
16 Jun ? 23:21:30 10° S 23:30:11 83° E 23:38:55 10° N visible
17 Jun ? 01:21:44 10° WSW 01:28:04 22° WNW 01:34:28 10° NNW visible
17 Jun ? 22:32:39 10° SSE 22:40:47 47° E 22:48:57 10° NNE visible
18 Jun ? 00:29:43 10° SW 00:37:40 39° WNW 00:45:43 10° N visible
18 Jun ? 23:39:02 10° SSW 23:47:41 69° W 23:56:23 10° N visible
19 Jun ? 01:42:12 10° W 01:46:21 14° WNW 01:50:32 10° NNW visible
19 Jun ? 22:49:27 10° S 22:58:02 71° E 23:06:42 10° NNE visible
20 Jun ? 00:48:40 10° WSW 00:55:37 26° WNW 01:02:39 10° NNW visible
20 Jun ? 23:57:06 10° SW 00:05:21 46° WNW 00:13:40 10° N visible
21 Jun ? 23:06:46 10° S 23:15:28 81° W 23:24:14 10° N visible
22 Jun ? 01:08:31 10° W 01:13:48 17° WNW 01:19:07 10° NNW visible
22 Jun ? 22:17:30 10° SSE 22:25:56 60° E 22:34:25 10° NNE visible
23 Jun ? 00:15:46 10° SW 00:23:12 31° WNW 00:30:45 10° N visible
23 Jun ? 23:24:36 10° SSW 23:33:03 55° WNW 23:41:36 10° N visible
24 Jun ? 01:30:50 10° WNW 01:32:14 10° NW 01:33:37 10° NW visible
24 Jun ? 22:34:35 10° S 22:43:17 87° E 22:52:03 10° N visible
25 Jun ? 00:35:10 10° WSW 00:41:17 21° WNW 00:47:28 10° NNW visible
25 Jun ? 23:42:59 10° SW 23:50:50 37° WNW 23:58:46 10° N visible
